Probability
0 0 0 0 0 0 0 0 0 0 0 0 0 0 0 0 0 0 0 0 0 0 0 0 0 0 0 0 0 0 0 0 0 0 1 2 3 3
0 0 0 0 0 0 0 0 0 0 0 0 0 0 0 0 0 0 0 0 0 0 0 0 0 0 0 0 0 0 0 0 0 0 0 1 2 2
0 0 0 0 0 0 0 0 0 0 0 0 0 0 0 0 0 0 0 0 0 0 0 0 0 0 0 0 0 0 0 0 0 0 0 0 1 1
0 0 0 0 0 0 0 0 0 0 0 0 0 0 0 0 0 0 0 0 0 0 0 0 0 0 0 0 0 0 0 0 0 0 0 0 0 0
0 0 0 0 0 0 0 0 0 0 0 0 0 0 0 0 0 0 0 0 0 0 0 0 0 0 0 0 0 0 0 0 0 0 0 0 0 0
0 0 0 0 0 0 0 0 0 0 0 0 0 0 0 0 0 0 0 0 0 0 0 0 0 0 0 0 0 0 0 0 0 0 0 0 0 0
0 0 0 0 0 0 0 0 0 0 0 0 0 0 0 0 0 0 0 0 0 0 0 0 0 0 0 0 0 0 0 0 0 0 0 0 0 0
0 0 0 0 0 0 0 0 0 0 0 0 0 0 0 0 0 0 0 0 0 0 0 0 0 0 0 0 0 0 0 0 0 0 0 0 0 0
0 0 0 0 0 0 0 0 0 0 0 0 0 0 0 0 0 0 0 0 0 0 0 0 0 0 0 0 0 0 0 0 0 0 0 0 0 0
0 0 0 0 0 0 0 0 0 0 0 0 0 0 0 0 0 0 0 0 0 0 0 0 0 0 0 0 0 0 0 0 0 0 0 0 0 0
0 0 0 0 0 0 0 0 0 0 0 0 0 0 0 0 0 0 0 0 0 0 0 0 0 0 0 0 0 0 0 0 0 0 0 0 0 0
0 0 0 0 0 0 0 0 0 0 0 0 0 0 0 0 0 0 0 0 0 0 0 0 0 0 0 0 0 0 0 0 0 0 0 0 0 0
0 0 0 0 0 0 0 0 0 0 0 0 0 0 0 0 0 0 0 0 0 0 0 0 0 0 0 0 0 0 0 0 0 0 0 0 0 0
0 0 0 0 0 0 0 0 0 0 0 0 0 0 0 0 0 0 0 0 0 0 0 0 0 0 0 0 0 0 0 0 0 0 0 0 0 0
0 0 0 0 0 0 0 0 0 0 0 0 0 0 0 0 0 0 0 0 0 0 0 0 0 0 0 0 0 0 0 0 0 0 0 0 0 0
0 0 0 0 0 0 0 0 0 0 0 0 0 0 0 0 0 0 0 0 0 0 0 0 0 0 0 0 0 0 0 0 0 0 0 0 0 0
0 0 0 0 0 0 0 0 0 0 0 0 0 0 0 0 0 0 0 0 0 0 0 0 0 0 0 0 0 0 0 0 0 0 0 0 0 0
0 0 0 0 0 0 0 0 0 0 0 0 0 0 0 0 0 0 0 0 0 0 0 0 0 0 0 0 0 0 0 0 0 0 0 0 0 0
0 0 0 0 0 0 0 0 0 0 0 0 0 0 0 0 0 0 0 0 0 0 0 0 0 0 0 0 0 0 0 0 0 0 0 0 0 0
0 0 0 0 0 0 0 0 0 0 0 0 0 0 0 0 0 0 0 0 0 0 0 0 0 0 0 0 0 0 0 0 0 0 0 0 0 0
0 0 0 0 0 0 0 0 0 0 0 0 0 0 0 0 0 0 0 0 0 0 0 0 0 0 0 0 0 0 0 0 0 0 0 0 0 0
0 0 0 0 0 0 0 0 0 0 0 0 0 0 0 0 0 0 0 0 0 0 0 0 0 0 0 0 0 0 0 0 0 0 0 0 0 0
0 0 0 0 0 0 0 0 0 0 0 0 0 0 0 0 0 0 0 0 0 0 0 0 0 0 0 0 0 0 0 0 0 0 0 0 0 0
Wind_Speed
4 4 3 3 3 3 3 3 3 2 2 2 2 2 1 2 3 3 4 7 9 9 9 9 8 8 8 8 7 6 6 5 5 5 5 5 5 5
2 3 3 2 3 3 3 3 3 3 2 2 2 1 1 1 2 2 3 6 7 8 9 9 9 9 9 9 8 7 7 6 6 6 5 5 5 5
1 2 3 2 2 2 3 3 3 3 3 2 1 1 1 1 1 0 1 2 2 6 7 8 9 9 10 10 10 9 8 8 7 7 7 7 7 6
2 2 1 1 2 2 2 3 2 3 3 2 1 1 1 1 1 1 1 1 2 4 6 7 8 9 9 10 10 10 9 9 9 9 9 9 8 8
2 2 2 2 2 2 2 2 2 2 2 2 0 1 1 1 2 2 2 2 1 2 3 4 5 7 7 8 9 9 9 9 9 9 9 9 9 9
1 1 1 2 2 3 2 3 2 3 2 1 1 1 1 1 1 1 2 2 2 2 3 2 2 3 4 5 7 7 8 8 9 9 9 9 9 9
2 1 1 1 2 2 2 3 3 3 2 2 1 1 1 1 1 1 1 1 2 2 2 2 3 2 3 3 3 4 5 6 7 8 8 8 9 9
2 2 2 2 3 4 5 5 4 4 3 2 1 1 0 0 1 1 1 1 1 2 2 2 2 3 3 2 4 4 3 3 4 4 5 5 6 7
2 2 2 3 4 4 5 7 6 5 4 4 3 1 1 0 1 1 1 2 1 2 2 2 3 3 3 5 8 7 6 5 4 3 3 3 3 3
3 2 2 2 3 4 5 5 5 5 4 3 3 2 1 1 1 1 1 2 2 2 2 2 3 3 3 4 10 11 10 10 9 7 6 5 5 4
4 4 3 3 4 7 6 6 5 4 6 9 8 7 7 6 4 2 2 2 2 3 3 2 2 2 3 4 7 11 12 12 12 11 10 8 7 6
5 5 7 5 6 6 5 5 5 3 4 5 7 8 7 8 9 4 2 2 2 2 3 2 2 2 2 3 4 6 7 10 11 13 13 12 9 5
5 5 5 9 9 8 6 4 5 5 4 5 5 5 5 5 5 5 4 3 2 2 2 1 1 2 1 1 3 5 6 6 6 7 11 14 13 9
5 4 5 11 12 11 7 8 10 8 4 4 5 4 4 4 4 5 6 6 5 4 3 2 2 1 1 2 2 3 4 5 6 6 6 9 10 11
5 9 11 12 12 10 12 12 8 5 4 5 4 3 2 2 3 3 4 5 7 7 7 5 3 2 3 2 2 3 3 4 6 5 6 7 7 6
5 8 12 14 10 9 9 8 6 5 4 4 3 2 3 3 4 3 3 3 4 5 8 9 7 6 5 5 4 4 4 3 4 4 4 5 6 6
4 5 5 5 6 6 6 6 5 5 5 3 3 4 4 4 4 3 3 3 4 3 4 5 6 7 9 6 4 5 4 4 4 4 3 4 5 6
6 5 5 5 5 5 5 5 5 5 4 4 4 4 4 4 4 4 4 4 4 3 3 3 3 2 3 6 8 5 4 4 4 4 3 3 4 5
6 5 5 4 4 4 4 4 3 3 3 4 4 3 3 3 3 3 3 3 3 3 3 3 3 2 3 3 4 8 5 4 3 4 4 3 3 4
4 4 4 3 3 3 3 3 3 3 4 4 4 3 3 3 3 3 3 3 3 3 3 4 4 3 2 2 2 4 7 5 3 3 3 2 2 3
3 3 3 3 3 3 3 3 3 3 3 3 3 3 3 3 3 3 3 4 3 3 3 3 3 3 1 3 3 3 4 6 5 3 3 2 3 4
2 2 2 2 2 2 2 2 3 3 3 3 3 3 3 2 3 3 3 3 2 2 2 2 3 3 3 4 3 2 3 5 6 7 7 5 2 2
1 1 1 1 1 1 2 2 2 2 2 2 2 2 2 2 2 2 3 3 2 2 2 2 3 3 3 3 2 2 4 4 4 4 4 7 6 3
Wind_Direction
192 195 196 197 195 198 186 177 173 203 250 266 281 305 271 237 227 212 222 231 226 224 226 228 230 233 239 246 254 262 272 281 289 291 295 302 302 302
189 199 205 202 199 193 190 187 185 180 215 248 251 270 288 268 217 208 224 238 238 232 229 229 231 232 235 237 240 243 245 251 264 273 278 282 288 293
180 189 210 200 196 189 177 176 185 174 206 246 254 289 307 335 0 316 226 220 241 244 239 237 237 236 236 235 236 237 239 242 249 259 268 272 274 277
173 176 202 189 184 178 170 174 178 180 187 212 288 339 343 359 1 342 334 252 241 258 254 250 245 241 238 237 236 235 236 239 243 249 257 264 269 272
147 158 178 163 168 157 155 159 162 160 165 166 180 1 356 14 31 22 19 4 320 290 276 268 261 254 246 241 239 238 237 239 244 247 252 259 265 270
111 147 164 162 165 151 144 140 135 130 131 131 119 42 9 14 43 32 17 13 4 9 4 355 334 305 276 259 247 242 243 244 246 248 252 255 259 263
53 57 76 130 149 143 130 131 127 118 114 113 109 86 43 38 34 15 32 5 17 12 1 7 4 6 352 331 308 279 260 255 255 253 254 255 258 261
49 41 49 63 91 100 112 122 131 132 135 128 122 118 89 72 57 41 53 46 21 4 13 2 12 13 360 355 351 343 322 291 274 273 272 270 269 271
50 46 59 65 80 91 89 85 77 86 119 136 130 140 141 146 118 71 56 58 45 349 4 15 10 17 8 16 20 27 26 22 13 3 355 344 332 319
45 53 74 61 82 107 98 81 66 57 70 86 106 107 112 124 126 119 111 85 58 22 17 41 9 12 12 22 30 38 40 39 39 38 34 30 25 20
43 48 67 70 86 105 103 96 80 61 66 77 79 76 71 71 78 82 69 69 50 18 15 44 12 4 21 25 26 36 41 41 39 37 38 37 35 35
39 36 43 61 84 96 101 106 101 80 75 68 59 51 49 47 49 58 80 89 83 37 6 23 18 18 48 24 24 27 33 34 37 38 39 38 37 44
48 38 37 59 72 81 84 89 104 103 85 80 69 54 45 40 36 38 45 71 89 62 355 13 37 33 56 33 26 27 33 32 33 36 38 38 40 44
55 41 49 63 68 69 71 85 91 88 80 74 67 53 44 37 33 41 51 56 59 59 9 25 63 46 64 53 32 15 29 32 34 36 35 33 37 40
63 67 67 64 63 60 62 69 70 71 77 75 68 50 29 24 35 44 44 53 53 43 29 25 48 56 64 68 44 10 20 26 25 33 38 40 35 28
58 60 64 62 61 56 53 50 49 57 74 75 66 39 30 40 38 33 39 34 50 32 26 33 42 61 69 58 59 41 29 23 4 18 43 47 38 34
64 54 50 48 52 49 48 47 45 47 51 46 55 54 47 47 35 25 37 46 61 45 30 30 46 64 64 54 52 38 31 27 9 3 38 51 40 30
70 63 57 53 54 52 51 46 41 40 39 48 53 54 54 54 48 38 45 60 67 50 32 6 1 38 59 58 40 32 25 16 5 15 30 44 36 21
69 66 60 55 54 53 52 52 42 29 35 49 55 52 56 56 57 51 48 53 56 45 26 10 18 50 65 53 30 30 25 9 8 23 26 30 24 2
59 65 61 56 55 56 54 53 47 39 41 45 48 47 51 60 61 55 49 54 50 39 32 27 28 32 68 98 71 19 18 23 20 20 9 3 354 337
59 60 57 59 57 58 58 57 57 51 46 46 44 45 47 62 64 57 55 54 54 48 41 18 350 2 69 72 67 23 3 15 31 30 5 8 5 5
75 72 59 58 62 61 61 63 61 55 48 48 44 44 47 60 68 65 62 62 55 58 50 17 9 35 51 70 69 29 0 359 9 28 38 43 32 7
127 112 91 71 70 76 77 76 78 66 57 53 50 47 56 63 64 69 71 71 75 69 57 40 30 42 49 58 65 40 21 7 359 6 3 2 16 15